Location: Franzen
(48.6167°N, 15.3833°E)
Time: 10:10:24
(UTC+00:00)

Cosmos 1825 - Pass Details

Date: 22 April 2021
Orbit: 502 x 505 km, 82.5° (Epoch: 16 May)

Event Time Altitude Azimuth Distance (km) Brightness Sun altitude
Rises 18:48:09 0° 347° (NNW) 2,620 6.5 -8.0°
Reaches altitude 10° 18:50:18 10° 343° (NNW) 1,730 5.6 -8.3°
Maximum altitude 18:54:02 59° 264° (W) 590 2.8 -8.8°
Drops below altitude 10° 18:57:44 10° 185° (S) 1,716 4.6 -9.4°
Sets 18:59:51 0° 181° (S) 2,595 5.5 -9.7°
